TimePDT,TemperatureF,Dew PointF,Humidity,Sea Level PressureIn,VisibilityMPH,Wind Direction,Wind SpeedMPH,Gust SpeedMPH,PrecipitationIn,Events,Conditions,WindDirDegrees,DateUTC
12:53 AM,57.0,52.0,83,30.08,10.0,West,9.2,-,N/A,,Partly Cloudy,270,2013-08-13 07:53:00
1:53 AM,57.0,52.0,83,30.08,10.0,West,6.9,-,N/A,,Overcast,260,2013-08-13 08:53:00
2:53 AM,54.0,51.1,90,30.08,10.0,West,4.6,-,N/A,,Clear,270,2013-08-13 09:53:00
3:53 AM,57.0,53.1,87,30.09,10.0,WSW,4.6,-,N/A,,Overcast,240,2013-08-13 10:53:00
4:53 AM,55.0,52.0,89,30.09,10.0,Calm,Calm,-,N/A,,Mostly Cloudy,0,2013-08-13 11:53:00
5:53 AM,53.1,51.1,93,30.09,10.0,WSW,3.5,-,N/A,,Clear,250,2013-08-13 12:53:00
6:53 AM,54.0,52.0,93,30.10,10.0,SW,4.6,-,N/A,,Clear,230,2013-08-13 13:53:00
7:53 AM,60.1,54.0,80,30.10,10.0,West,8.1,-,N/A,,Scattered Clouds,270,2013-08-13 14:53:00
8:53 AM,63.0,53.1,70,30.10,10.0,Variable,4.6,-,N/A,,Clear,0,2013-08-13 15:53:00
9:53 AM,64.9,52.0,63,30.11,10.0,Variable,3.5,-,N/A,,Clear,0,2013-08-13 16:53:00
10:53 AM,64.9,51.1,61,30.11,10.0,NNW,8.1,-,N/A,,Clear,330,2013-08-13 17:53:00
11:53 AM,64.9,52.0,63,30.11,10.0,Variable,5.8,-,N/A,,Clear,0,2013-08-13 18:53:00
12:53 PM,66.9,52.0,59,30.10,10.0,North,5.8,-,N/A,,Clear,10,2013-08-13 19:53:00
1:53 PM,68.0,52.0,56,30.09,10.0,NNW,5.8,-,N/A,,Clear,330,2013-08-13 20:53:00
2:53 PM,69.1,52.0,54,30.07,10.0,North,8.1,-,N/A,,Clear,350,2013-08-13 21:53:00
3:53 PM,68.0,51.1,55,30.06,10.0,NW,6.9,-,N/A,,Clear,310,2013-08-13 22:53:00
4:53 PM,68.0,51.1,55,30.04,10.0,WNW,11.5,-,N/A,,Clear,300,2013-08-13 23:53:00
5:53 PM,66.0,50.0,56,30.03,10.0,WNW,10.4,-,N/A,,Clear,300,2013-08-14 00:53:00
6:53 PM,64.9,50.0,58,30.00,10.0,NW,6.9,-,N/A,,Clear,320,2013-08-14 01:53:00
7:53 PM,61.0,48.9,64,29.99,10.0,WNW,3.5,-,N/A,,Clear,300,2013-08-14 02:53:00
8:53 PM,57.9,50.0,75,29.97,10.0,WSW,3.5,-,N/A,,Clear,240,2013-08-14 03:53:00
9:53 PM,55.9,50.0,80,29.96,10.0,WSW,4.6,-,N/A,,Clear,250,2013-08-14 04:53:00
10:53 PM,53.1,48.0,83,29.95,10.0,Calm,Calm,-,N/A,,Clear,0,2013-08-14 05:53:00
11:53 PM,52.0,48.9,89,29.96,10.0,SSW,3.5,-,N/A,,Clear,210,2013-08-14 06:53:00